Regional Weather Roundup
Issued by NWS Burlington, VT

Current Version | Previous Version | Text Only | Print | Product List | Glossary On
Versions: 1 2 3 4 5 6 7 8 9 10 11 12 13 14 15 16 17 18 19 20 21 22 23 24 25 26 27 28 29 30 31 32 33 34 35 36 37 38 39 40 41 42 43 44 45 46 47 48 49 50
000 ASUS41 KBTV 070231 RWRBTV VERMONT REGIONAL WEATHER ROUNDUP NATIONAL WEATHER SERVICE BURLINGTON VT 900 PM EST SAT MAR 06 2021 NOTE: "FAIR" INDICATES FEW OR NO CLOUDS BELOW 12,000 FEET WITH NO SIGNIFICANT WEATHER AND/OR OBSTRUCTIONS TO VISIBILITY. * THESE REPORTS ARE NOT UNDER NWS QUALITY CONTROL AND/OR DO NOT REPORT WEATHER SUCH AS PRECIPITATION AND FOG. VTZ001>019-070300- _____VERMONT_____ CITY SKY/WX TMP DP RH WIND PRES REMARKS BURLINGTON CLOUDY 21 5 50 NW7 30.17R WCI 12 MONTPELIER CLOUDY 15 5 64 NW6 30.13R WCI 6 MORRISVILLE CLOUDY 17 5 59 VRB3 30.14R ST. JOHNSBURY* N/A 17 5 59 MISG 30.11R LYNDONVILLE* CLOUDY 14 5 66 W6 30.10R WCI 5 MIDDLEBURY* MOCLDY 17 4 57 CALM 30.16S RUTLAND* CLOUDY 19 5 54 NW9 30.13R WCI 8 SPRINGFIELD CLOUDY 21 3 45 NW5 30.13R WCI 15 HIGHGATE* CLOUDY 19 3 50 CALM 30.17S NEWPORT* CLOUDY 16 1 53 W3 30.11S BENNINGTON CLOUDY 20 4 50 NW7 30.13R WCI 11 ISLAND POND* N/A 14 N/A N/A W6 N/A WCI 5 GALLUP MILLS* N/A 12 N/A N/A MISG N/A LAKE EDEN* N/A 14 N/A N/A W2 N/A MT. MANSFIELD* N/A 5 N/A N/A CALM N/A _____LAKE CHAMPLAIN_____ CITY SKY/WX TMP DP RH WIND PRES REMARKS COLCHESTER RF* N/A 23 9 54 NW14 N/A WCI 11 DIAMOND ISL* N/A 23 7 50 N2 N/A $$ NYZ007-026>031-035-052-083-087-070300- _____NORTHERN NEW YORK_____ CITY SKY/WX TMP DP RH WIND PRES REMARKS PLATTSBURGH CLOUDY 20 7 57 W6 30.18R WCI 12 SARANAC LAKE CLOUDY 12 5 73 SW5 30.06R WCI 4 MASSENA CLEAR 15 1 53 W5 30.21R WCI 8 OGDENSBURG* MOCLDY 16 3 57 W3 30.19R POTSDAM* CLOUDY 16 3 57 CALM 30.19S WATERTOWN CLOUDY 20 12 71 CALM 30.19R FT DRUM CLOUDY 18 10 72 CALM 30.16R ALBANY CLOUDY 21 10 62 NW10 30.19R WCI 10 GLENS FALLS MOCLDY 20 4 50 NW7 30.17R WCI 11 $$ NHZ002-005-011-070300- _____NEW HAMPSHIRE_____ CITY SKY/WX TMP DP RH WIND PRES REMARKS LEBANON CLOUDY 23 7 50 NW9 30.11R WCI 13 KEENE CLOUDY 23 11 60 W6 30.11R WCI 16 MT WASHINGTON SNOWSHWR -9 -9 100 W30 N/A VSB 0 WCI -39 PLYMOUTH FAIR 20 5 51 NW12G17 30.10R WCI 9 WHITEFIELD FLURRIES 16 5 62 W8 30.09R WCI 5 $$ _____REGIONAL QUEBEC LOCATIONS_____ CITY SKY/WX TMP DP RH WIND PRES REMARKS MONTREAL CLEAR 16 3 57 W7 30.17R WCI 6 QUEBEC CITY MOCLDY 18 3 53 W9 30.05R WCI 6 SHERBROOKE CLOUDY 16 5 62 W13G20 30.07R WCI 2 _____REGIONAL ONTARIO LOCATIONS_____ CITY SKY/WX TMP DP RH WIND PRES REMARKS OTTAWA PTCLDY 14 3 62 W10 30.18R WCI 1 ______KEY______ VSB - VISIBILITY IN MILES WCI - WIND CHILL INDEX HX - HEAT INDEX $$ NNNN

USA.gov is the U.S. government's official web portal to all federal, state and local government web resources and services.